McComb, MS

11:38 AM CST on November 23, 2017 (GMT -0600)
McComb-Pike County-Lewis

Weather History for KMCB - June, 2012

Change the Weather History Date:

Friday, June 29, 2012

  Actual Average Record
Temperature  
Mean Temperature 87 °F -  
Max Temperature 100 °F 91 °F 102 °F (1969)
Min Temperature 75 °F 68 °F 57 °F (1974)
Cooling Degree Days 22    
Growing Degree Days 37 (Base 50)    
Moisture  
Dew Point 69 °F    
Average Humidity 60    
Maximum Humidity 94    
Minimum Humidity 30    
Precipitation  
Precipitation 0.00 in - - ()
Sea Level Pressure  
Sea Level Pressure 29.97 in    
Wind  
Wind Speed 4 mph (SW)    
Max Wind Speed 9 mph    
Max Gust Speed -    
Visibility 9 miles    
Events      
Averages and records for this station are not official NWS values.
T = Trace of Precipitation, MM = Missing Value Source: NWS Daily Summary

Daily Weather History Graph

Daily Weather History Graph

Search for Another Location

Airport or City:

Trip Planner

Search our weather history database for the weather conditions in past years. The results will help you decide how hot, cold, wet, or windy it might be!

Date:

Astronomy

Jun. 29, 2012 Rise Set
Actual Time 6:00 AM CDT 8:09 PM CDT
Civil Twilight 5:33 AM CDT 8:37 PM CDT
Nautical Twilight 4:59 AM CDT 9:11 PM CDT
Astronomical Twilight 4:22 AM CDT 9:48 PM CDT
Moon 4:01 PM CDT (6/29) 2:03 AM CDT (6/29)
Length of Visible Light 15h 04m
Length of Day
14h 09m
Waxing Gibbous, 78% of the Moon is Illuminated
Jun 29
Waxing Gibbous
Jul 3
Full
Jul 10
Last Quarter
Jul 18
New
Jul 26
First Quarter

Hourly Weather History & Observations

Time (CDT) Temp. Heat Index Dew Point Humidity Pressure Visibility Wind Dir Wind Speed Gust Speed Precip Events Conditions
12:53 AM 79.0 °F - 72.0 °F 79% 30.01 in 8.0 mi South 3.5 mph - N/A   Clear
1:53 AM 78.1 °F - 72.0 °F 81% 30.01 in 8.0 mi SSW 3.5 mph - N/A   Clear
2:53 AM 77.0 °F - 73.0 °F 88% 30.01 in 8.0 mi SSW 3.5 mph - N/A   Clear
3:53 AM 75.9 °F - 73.0 °F 91% 30.01 in 7.0 mi SSW 3.5 mph - N/A   Clear
4:53 AM 75.0 °F - 73.0 °F 94% 30.01 in 6.0 mi Calm Calm - N/A   Clear
5:53 AM 75.0 °F - 73.0 °F 94% 30.01 in 6.0 mi West 3.5 mph - N/A   Clear
7:53 AM 79.0 °F - 75.0 °F 88% 30.04 in 7.0 mi West 6.9 mph - N/A   Clear
8:53 AM 84.9 °F 90.7 °F 72.0 °F 65% 30.04 in 10.0 mi West 9.2 mph - N/A   Clear
9:53 AM 88.0 °F 92.1 °F 69.1 °F 53% 30.03 in 10.0 mi NW 5.8 mph - N/A   Clear
10:53 AM 91.0 °F 95.2 °F 68.0 °F 47% 30.02 in 10.0 mi West 4.6 mph - N/A   Clear
11:53 AM 93.9 °F 97.5 °F 66.9 °F 41% 30.01 in 10.0 mi Variable 4.6 mph - N/A   Clear
12:53 PM 95.0 °F 97.9 °F 66.0 °F 38% 29.99 in 10.0 mi Calm Calm - N/A   Clear
2:53 PM 99.0 °F 100.5 °F 63.0 °F 30% 29.93 in 10.0 mi SSW 4.6 mph - N/A   Scattered Clouds
3:53 PM 97.0 °F 98.3 °F 63.0 °F 32% 29.91 in 10.0 mi Variable 3.5 mph - N/A   Clear
4:53 PM 97.0 °F 98.3 °F 63.0 °F 32% 29.90 in 10.0 mi Calm Calm - N/A   Clear
5:53 PM 98.1 °F 99.1 °F 62.1 °F 30% 29.88 in 10.0 mi Calm Calm - N/A   Scattered Clouds
6:53 PM 95.0 °F 99.5 °F 68.0 °F 41% 29.89 in 10.0 mi SSW 8.1 mph - N/A   Scattered Clouds
7:53 PM 91.9 °F 96.9 °F 69.1 °F 47% 29.89 in 9.0 mi South 8.1 mph - N/A   Clear
8:53 PM 88.0 °F 92.9 °F 70.0 °F 55% 29.91 in 10.0 mi South 6.9 mph - N/A   Clear
9:53 PM 84.9 °F 88.8 °F 69.1 °F 59% 29.93 in 10.0 mi Calm Calm - N/A   Clear
10:53 PM 82.0 °F 85.5 °F 69.1 °F 65% 29.93 in 10.0 mi Calm Calm - N/A   Clear
11:53 PM 79.0 °F - 69.1 °F 72% 29.93 in 9.0 mi Calm Calm - N/A   Clear